Location: Karcze
(52.0945°N, 22.4786°E)
Time: 02:34:46
(UTC+00:00)

Transit 2A Rocket - Pass Details

Date: 30 July 2021
Orbit: 586 x 916 km, 66.7° (Epoch: 21 September)

Event Time Altitude Azimuth Distance (km) Brightness Sun altitude
Rises 20:29:25 0° 321° (NW) 3,185 10.1 -14.4°
Reaches altitude 10° 20:31:45 10° 325° (NW) 2,310 8.9 -14.6°
Maximum altitude 20:37:01 58° 45° (NE) 951 5.5 -15.0°
Enters shadow 20:41:16 18° 120° (ESE) 1,973 6.6 -15.3°
Drops below altitude 10° 20:42:44 10° 124° (SE) 2,505 - -15.4°
Sets 20:45:21 0° 129° (SE) 3,476 - -15.6°
